Terug naar catalogus

STARLINK-4482

ActiefCommunicatieVLEO
NORAD 53530·PAYLOAD·🇺🇸 United States

Gelanceerd Aug 19, 2022 vanaf Cape Canaveral Space Force Station

Loading…

Volgende Passages (komende 24 uur)

TLE

VersSource: CelesTrak SupGP

Epoch: Sep 14, 2026, 22:24 UTC

1 53530C 22101D   26257.93381944  .00022901  00000+0  14364-2 0  2575
2 53530  53.1595 304.1635 0001087  82.4570  88.6352 15.08817907    19

Volg STARLINK-4482 in realtime met AllMySat

Download on the App Store